Hourly Weather Murovana

Today, 26 September, Sunday

Time Temperature Precipitation Wind Pressure Humidity
00:00 +10°C° 0 mm 3 mps 750 mmHg 94%
01:00 +9°C° 0 mm 3 mps 750 mmHg 95%
02:00 +9°C° 0 mm 3 mps 751 mmHg 96%
03:00 +9°C° 0 mm 3 mps 751 mmHg 96%
04:00 +8°C° 0 mm 2 mps 752 mmHg 96%
05:00 +8°C° 0 mm 2 mps 752 mmHg 96%
06:00 +9°C° 0 mm 2 mps 752 mmHg 93%
07:00 +9°C° 0 mm 2 mps 753 mmHg 91%
08:00 +10°C° 0 mm 2 mps 753 mmHg 89%
09:00 +12°C° 0 mm 3 mps 754 mmHg 80%
10:00 +13°C° 0 mm 3 mps 754 mmHg 71%
11:00 +16°C° 0 mm 3 mps 754 mmHg 62%
12:00 +16°C° 0 mm 3 mps 754 mmHg 58%
13:00 +17°C° 0 mm 3 mps 754 mmHg 55%
14:00 +18°C° 0 mm 3 mps 754 mmHg 51%
15:00 +17°C° 0 mm 2 mps 754 mmHg 55%
16:00 +16°C° 0 mm 2 mps 754 mmHg 60%
17:00 +16°C° 0 mm 2 mps 755 mmHg 64%
18:00 +14°C° 0 mm 2 mps 755 mmHg 67%
19:00 +13°C° 0 mm 2 mps 755 mmHg 69%
20:00 +12°C° 0 mm 2 mps 755 mmHg 72%
21:00 +10°C° 0 mm 2 mps 756 mmHg 75%
22:00 +9°C° 0 mm 2 mps 756 mmHg 77%
23:00 +9°C° 0 mm 2 mps 756 mmHg 80%

Tomorrow, 27 September, Monday

Time Temperature Precipitation Wind Pressure Humidity
00:00 +8°C° 0 mm 2 mps 756 mmHg 82%
01:00 +8°C° 0 mm 2 mps 756 mmHg 84%
02:00 +8°C° 0 mm 2 mps 756 mmHg 87%
03:00 +7°C° 0 mm 2 mps 757 mmHg 88%
04:00 +7°C° 0 mm 2 mps 757 mmHg 90%
05:00 +7°C° 0 mm 2 mps 757 mmHg 91%
06:00 +7°C° 0 mm 2 mps 757 mmHg 88%
07:00 +8°C° 0 mm 3 mps 757 mmHg 85%
08:00 +8°C° 0 mm 3 mps 757 mmHg 82%
09:00 +10°C° 0 mm 3 mps 757 mmHg 75%
10:00 +11°C° 0 mm 3 mps 757 mmHg 69%
11:00 +13°C° 0 mm 4 mps 758 mmHg 62%
12:00 +13°C° 0 mm 4 mps 757 mmHg 60%
13:00 +14°C° 0 mm 4 mps 757 mmHg 58%
14:00 +15°C° 0 mm 4 mps 757 mmHg 56%
15:00 +14°C° 0 mm 4 mps 757 mmHg 60%
16:00 +14°C° 0 mm 3 mps 757 mmHg 64%
17:00 +13°C° 0 mm 3 mps 757 mmHg 68%
18:00 +12°C° 0 mm 3 mps 757 mmHg 74%
19:00 +10°C° 0 mm 3 mps 757 mmHg 81%
20:00 +9°C° 0 mm 3 mps 757 mmHg 87%
21:00 +8°C° 0 mm 3 mps 757 mmHg 88%
22:00 +8°C° 0 mm 3 mps 758 mmHg 89%
23:00 +7°C° 0 mm 3 mps 758 mmHg 91%

Day after tomorrow, 28 September, Tuesday

Time Temperature Precipitation Wind Pressure Humidity
00:00 +7°C° 0 mm 3 mps 758 mmHg 91%
01:00 +7°C° 0 mm 3 mps 758 mmHg 92%
02:00 +5°C° 0 mm 3 mps 758 mmHg 93%
03:00 +5°C° 0 mm 3 mps 758 mmHg 92%
04:00 +6°C° 0 mm 2 mps 759 mmHg 92%
05:00 +5°C° 0 mm 2 mps 759 mmHg 91%
06:00 +6°C° 0 mm 2 mps 759 mmHg 87%
07:00 +7°C° 0 mm 2 mps 759 mmHg 84%
08:00 +8°C° 0 mm 2 mps 759 mmHg 80%
09:00 +10°C° 0 mm 3 mps 759 mmHg 72%
10:00 +11°C° 0 mm 3 mps 760 mmHg 65%
11:00 +13°C° 0 mm 4 mps 760 mmHg 57%
12:00 +14°C° 0 mm 4 mps 760 mmHg 56%
13:00 +14°C° 0 mm 4 mps 760 mmHg 54%
14:00 +15°C° 0 mm 4 mps 760 mmHg 52%
15:00 +14°C° 0 mm 4 mps 760 mmHg 55%
16:00 +14°C° 0 mm 3 mps 760 mmHg 58%
17:00 +13°C° 0 mm 3 mps 760 mmHg 62%
18:00 +12°C° 0 mm 3 mps 760 mmHg 62%
19:00 +12°C° 0 mm 3 mps 760 mmHg 62%
20:00 +12°C° 0 mm 2 mps 761 mmHg 62%
21:00 +12°C° 0 mm 2 mps 761 mmHg 62%
22:00 +11°C° 0 mm 3 mps 761 mmHg 62%
23:00 +11°C° 0 mm 3 mps 761 mmHg 62%

29 September, Wednesday

Time Temperature Precipitation Wind Pressure Humidity
00:00 +11°C° 0 mm 3 mps 761 mmHg 63%
01:00 +10°C° 0 mm 3 mps 761 mmHg 63%
02:00 +10°C° 0 mm 3 mps 761 mmHg 64%
03:00 +9°C° 0 mm 3 mps 761 mmHg 67%
04:00 +9°C° 0 mm 3 mps 761 mmHg 71%
05:00 +8°C° 0 mm 3 mps 761 mmHg 74%
06:00 +9°C° 0 mm 3 mps 761 mmHg 76%
07:00 +8°C° 0 mm 4 mps 761 mmHg 78%
08:00 +8°C° 0 mm 4 mps 761 mmHg 80%
09:00 +10°C° 0 mm 4 mps 761 mmHg 75%
10:00 +12°C° 0 mm 5 mps 761 mmHg 69%
11:00 +13°C° 0 mm 6 mps 761 mmHg 63%
12:00 +13°C° 0 mm 6 mps 761 mmHg 61%
13:00 +13°C° 0 mm 6 mps 761 mmHg 60%
14:00 +14°C° 0 mm 6 mps 761 mmHg 59%
15:00 +13°C° 0 mm 5 mps 760 mmHg 58%
16:00 +13°C° 0 mm 5 mps 760 mmHg 58%
17:00 +13°C° 0 mm 5 mps 760 mmHg 58%
18:00 +12°C° 0 mm 5 mps 760 mmHg 59%
19:00 +12°C° 0 mm 5 mps 760 mmHg 60%
20:00 +11°C° 0 mm 4 mps 760 mmHg 61%
21:00 +10°C° 0 mm 4 mps 760 mmHg 65%
22:00 +8°C° 0 mm 4 mps 760 mmHg 70%
23:00 +7°C° 0 mm 4 mps 760 mmHg 74%

30 September, Thursday

Time Temperature Precipitation Wind Pressure Humidity
00:00 +6°C° 0 mm 4 mps 760 mmHg 76%
01:00 +6°C° 0 mm 4 mps 760 mmHg 77%
02:00 +6°C° 0 mm 4 mps 760 mmHg 79%
03:00 +5°C° 0 mm 4 mps 760 mmHg 81%
04:00 +5°C° 0 mm 4 mps 760 mmHg 83%
05:00 +5°C° 0 mm 4 mps 760 mmHg 85%
06:00 +5°C° 0 mm 4 mps 760 mmHg 84%
07:00 +6°C° 0 mm 5 mps 760 mmHg 82%
08:00 +6°C° 0 mm 5 mps 760 mmHg 81%
09:00 +8°C° 0 mm 5 mps 760 mmHg 74%
10:00 +10°C° 0 mm 5 mps 760 mmHg 67%
11:00 +13°C° 0 mm 6 mps 760 mmHg 61%
12:00 +13°C° 0 mm 6 mps 760 mmHg 58%
13:00 +14°C° 0 mm 6 mps 759 mmHg 56%
14:00 +15°C° 0 mm 5 mps 759 mmHg 53%
15:00 +15°C° 0 mm 5 mps 759 mmHg 57%
16:00 +14°C° 0 mm 4 mps 759 mmHg 60%
17:00 +13°C° 0 mm 4 mps 759 mmHg 64%
18:00 +12°C° 0 mm 4 mps 759 mmHg 69%
19:00 +11°C° 0 mm 3 mps 759 mmHg 74%
20:00 +9°C° 0 mm 3 mps 759 mmHg 80%
21:00 +9°C° 0 mm 3 mps 759 mmHg 80%
22:00 +8°C° 0 mm 3 mps 759 mmHg 81%
23:00 +8°C° 0 mm 3 mps 759 mmHg 82%

1 October, Friday

Time Temperature Precipitation Wind Pressure Humidity
00:00 +8°C° 0 mm 3 mps 759 mmHg 82%
01:00 +7°C° 0 mm 3 mps 759 mmHg 83%
02:00 +7°C° 0 mm 3 mps 759 mmHg 83%
03:00 +7°C° 0 mm 3 mps 759 mmHg 84%
04:00 +7°C° 0 mm 3 mps 759 mmHg 84%
05:00 +5°C° 0 mm 3 mps 759 mmHg 85%
06:00 +7°C° 0 mm 3 mps 758 mmHg 82%
07:00 +7°C° 0 mm 3 mps 758 mmHg 80%
08:00 +8°C° 0 mm 3 mps 758 mmHg 78%
09:00 +10°C° 0 mm 3 mps 758 mmHg 71%
10:00 +12°C° 0 mm 4 mps 759 mmHg 63%
11:00 +14°C° 0 mm 4 mps 759 mmHg 56%
12:00 +14°C° 0 mm 4 mps 758 mmHg 54%
13:00 +15°C° 0 mm 4 mps 758 mmHg 52%
14:00 +17°C° 0 mm 4 mps 758 mmHg 49%
15:00 +16°C° 0 mm 3 mps 758 mmHg 54%
16:00 +16°C° 0 mm 3 mps 758 mmHg 58%
17:00 +15°C° 0 mm 2 mps 757 mmHg 62%
18:00 +14°C° 0 mm 2 mps 758 mmHg 65%
19:00 +11°C° 0 mm 3 mps 758 mmHg 68%
20:00 +10°C° 0 mm 3 mps 758 mmHg 70%
21:00 +10°C° 0 mm 3 mps 758 mmHg 70%
22:00 +9°C° 0 mm 3 mps 758 mmHg 70%
23:00 +9°C° 0 mm 3 mps 758 mmHg 70%
Show more

We Need Your Consent

Meteoprog and our Service Providers may store and access personal data such as cookies, device identifiers or other similar technologies on your device and process such data to personalise content and ads, as well as provide social media features and to analyse the traffic.

  • Store and/or access information on your device

    Cookies, device identifiers or other information can be stored or accessed on your device for the purposes indicated above.

  • Personalised ads and content, ad and content measurement, audience insights, and products development

    Ads and content can be personalised based on a profile. More data can be added to better personalise ads and content. Ad and content performance can be measured. Insights about the audience who saw the ads and content can be derived. Such data can be used to develop or improve user’s experience, systems and software.

By clicking ‘I Agree’ you will allow the use of indicated cookies, device identifiers, web beacons or other similar technologies. Your settings can be changed in the browser on your device.

For certain purposes, legitimate interests may be relied on, rather than consent. You can read more about this in our Privacy and Cookie Policy.